Flag for Italy Weather past 2 weeks in Bologna, Italy

Now
45 °F

Passing clouds.


Feels Like: 42 °F
Forecast: 48 / 70 °F
Wind: 5 mph from Southwest

Location: Bologna / Borgo Panigale

Current Time: Mar 29, 2015 at 7:22:27 AM

Latest Report: Mar 29, 2015 at 6:50 AM


Visibility: N/A

Pressure: 29.92 "Hg

Humidity: 66%

Dew point: 34 °F

Location of BolognaLocation

Historic Weather in Bologna — Graph

°F

Bologna temperature yesterday

Maximum temperature yesterday: 64 °F (at 2:50 PM)
Minimum temperature yesterday: 39 °F (at 6:20 AM)
Average temperature yesterday: 52 °F

Past Weeks' High & Low Weather Summary

 TemperatureHumidityPressure
High64 °F (Mar 28, 2:50 PM)100% (Mar 16, 4:50 AM)30.33 "Hg (Mar 16, 4:50 AM)
Low37 °F (Mar 14, 4:50 AM)26% (Mar 28, 4:50 PM)29.45 "Hg (Mar 25, 1:20 PM)
Average50 °F80%30.03 "Hg
* Reported Mar 14 4:20 AM — Mar 29 5:50 AM, Bologna, Weather by CustomWeather, © 2015

Note: Actual official high and low records may vary slightly from our data, if they occured in-between our weather recording intervals... More about our weather records

Advertising

Bologna weather history for previous 24 hours

 ConditionsComfort  
Time TempWeatherWind HumidityBarometerVisibility
5:50 AM
Sun, Mar 29
45 °FPassing clouds.3 mph61%29.92 "HgN/A
5:20 AM45 °FClear.2 mph61%29.92 "Hg10 mi
4:50 AM46 °FClear.7 mph57%29.92 "Hg10 mi
4:20 AM46 °FClear.7 mph57%29.92 "Hg10 mi
3:50 AM46 °FClear.6 mph57%29.92 "Hg10 mi
3:20 AM46 °FClear.8 mph57%29.92 "Hg10 mi
1:50 AM48 °FClear.9 mph54%29.95 "Hg10 mi
1:20 AM48 °FClear.8 mph54%29.95 "Hg10 mi
12:50 AM48 °FClear.7 mph54%29.95 "Hg10 mi
12:20 AM48 °FClear.7 mph54%29.95 "Hg10 mi
11:50 PM
Sat, Mar 28
48 °FClear.9 mph58%29.95 "Hg10 mi
11:20 PM50 °FClear.10 mph54%29.95 "Hg10 mi
10:50 PM50 °FClear.8 mph54%29.95 "Hg10 mi
10:20 PM48 °FClear.6 mph58%29.95 "Hg10 mi
9:50 PM50 °FClear.6 mph54%29.95 "Hg10 mi
9:20 PM50 °FClear.5 mph62%29.95 "Hg10 mi
8:50 PM46 °FClear.6 mph62%29.95 "Hg10 mi
8:20 PM46 °FClear.8 mph66%29.95 "Hg10 mi
7:50 PM52 °FClear.6 mph58%29.95 "Hg10 mi
7:20 PM54 °FClear.5 mph51%29.95 "Hg10 mi
6:50 PM54 °FClear.7 mph51%29.95 "Hg10 mi
6:20 PM55 °FSunny.8 mph47%29.95 "Hg10 mi
5:50 PM59 °FSunny.8 mph42%29.95 "Hg10 mi
5:20 PM61 °FPassing clouds.6 mph42%29.95 "HgN/A
4:50 PM64 °FSunny.1 mph26%29.95 "Hg10 mi
4:20 PM63 °FPassing clouds.3 mph32%29.98 "HgN/A
3:50 PM63 °FPassing clouds.6 mph27%29.98 "HgN/A
3:20 PM63 °FPassing clouds.5 mph30%29.98 "HgN/A
2:50 PM64 °FSunny.2 mph30%29.98 "Hg10 mi
2:20 PM63 °FSunny.3 mph27%29.98 "Hg10 mi
1:50 PM63 °FSunny.2 mph27%30.01 "Hg10 mi
1:20 PM63 °FPassing clouds.5 mph27%30.01 "HgN/A
12:50 PM63 °FSunny.2 mph32%30.04 "Hg10 mi
12:20 PM61 °FPassing clouds.5 mph34%30.04 "HgN/A
11:50 AM61 °FSunny.3 mph31%30.04 "Hg10 mi
11:20 AM61 °FPassing clouds.3 mph36%30.04 "HgN/A
10:50 AM59 °FPassing clouds.5 mph39%30.04 "HgN/A
10:20 AM59 °FPassing clouds.7 mph45%30.04 "HgN/A
9:50 AM57 °FPassing clouds.7 mph51%30.04 "HgN/A
9:20 AM55 °FSunny.8 mph47%30.04 "Hg10 mi
8:50 AM52 °FSunny.8 mph54%30.04 "Hg10 mi
8:20 AM52 °FSunny.5 mph67%30.04 "Hg10 mi
7:50 AM48 °FPassing clouds.5 mph71%30.04 "HgN/A
7:20 AM45 °FSunny.6 mph81%30.01 "Hg10 mi
Weather by CustomWeather, © 2015

See weather overviewHow to use our weather pages